Location: Amsterdam
(30.7274°N, 84.4357°W)
Time: 13:12:52
(UTC+00:00)

Vanguard 2 Rocket - Pass Details

Date: 21 February 2026
Orbit: 553 x 3286 km, 32.9° (Epoch: 13 March)

Event Time Altitude Azimuth Distance (km) Brightness Sun altitude
Rises 00:31:04 0° 283° (WNW) 5,350 12.4 -13.9°
Reaches altitude 10° 00:36:12 10° 270° (W) 3,790 11.5 -15.0°
Maximum altitude 00:42:30 21° 226° (SW) 2,372 9.6 -16.3°
Drops below altitude 10° 00:46:59 10° 180° (S) 2,574 9.2 -17.3°
Sets 00:49:42 0° 162° (SSE) 3,233 9.6 -17.9°
